FW5282 Weather Reports


Display with metric or nautical units.
time (UTC)temp
F
wind
direction
speed
MPH
gust
MPH
rain 1hr
in
rain 24hr
in
rain mn
in
humidity
%
barometer
mb
20260506045034 51 355 3.0 11.0 0.00 2.80 0.04 96 1005.5
20260506044540 51 5 5.0 9.0 0.00 2.80 0.04 96 1005.5
20260506044046 51 9 5.0 12.0 0.04 2.80 0.04 96 1005.5
20260506043537 51 355 7.0 12.0 0.04 2.80 0.04 96 1005.4
20260506043033 51 360 5.0 15.0 0.04 2.80 0.04 96 1005.4
20260506042538 51 348 7.0 15.0 0.04 2.80 0.04 96 1005.3
20260506042039 51 348 4.0 12.0 0.04 2.80 0.04 96 1005.3
20260506041549 51 350 6.0 13.0 0.04 2.80 0.04 96 1005.2
20260506041028 52 333 7.0 13.0 0.04 2.80 0.04 97 1005.2
20260506040556 52 328 8.0 10.0 0.04 2.80 0.04 97 1005.1
20260506040028 52 344 5.0 9.0 0.04 2.87 0.04 97 1005.1
20260506035539 52 343 5.0 9.0 0.04 2.87 0.04 97 1005.1
20260506035040 52 342 4.0 9.0 0.04 2.87 0.04 97 1005.2
20260506034544 52 346 3.0 10.0 0.00 2.83 0.03 97 1005.3
20260506034043 52 348 4.0 10.0 0.04 2.83 0.03 96 1005.3
20260506033536 52 12 6.0 11.0 0.04 2.83 0.03 97 1005.3
20260506033030 52 355 7.0 11.0 0.04 2.83 0.03 96 1005.2
20260506032539 52 9 5.0 11.0 0.04 2.83 0.03 96 1005.3
20260506032037 52 322 6.0 11.0 0.04 2.83 0.03 96 1005.3
20260506031541 52 355 4.0 9.0 0.08 2.83 0.03 96 1005.2
20260506031053 52 341 4.0 9.0 0.08 2.83 0.03 97 1005.2
20260506030534 52 315 4.0 10.0 0.08 2.83 0.03 97 1005.2
20260506030031 52 332 5.0 10.0 0.08 2.99 0.03 96 1005.2
20260506025532 52 338 6.0 14.0 0.08 2.99 0.03 96 1005.2
20260506025036 53 10 6.0 14.0 0.08 2.99 0.03 96 1005.3
20260506024540 53 340 4.0 9.0 0.08 2.99 0.03 96 1005.3
20260506024042 53 336 5.0 9.0 0.04 2.95 0.02 96 1005.3
20260506023531 53 16 4.0 9.0 0.04 2.95 0.02 96 1005.3
20260506023037 53 360 4.0 6.0 0.04 2.95 0.02 96 1005.3
20260506022541 53 345 3.0 6.0 0.04 2.95 0.02 96 1005.4
20260506022045 53 325 1.0 5.0 0.04 2.95 0.02 96 1005.4
20260506021534 53 284 2.0 7.0 0.00 2.91 0.02 97 1005.4
20260506021029 53 267 3.0 7.0 0.00 2.91 0.02 97 1005.3
20260506020542 53 264 1.0 4.0 0.04 2.91 0.02 97 1005.2
20260506020058 53 268 1.0 5.0 0.04 2.91 0.02 97 1005.2
20260506015552 53 221 2.0 5.0 0.04 2.91 0.02 96 1005.3
20260506015047 53 234 1.0 4.0 0.08 2.91 0.02 96 1005.3
20260506014535 53 223 2.0 4.0 0.08 2.91 0.02 96 1005.3
20260506014034 53 234 2.0 4.0 0.08 2.91 0.02 96 1005.4
20260506013539 53 219 2.0 5.0 0.08 2.91 0.02 96 1005.5
20260506013036 53 220 2.0 5.0 0.08 2.91 0.02 96 1005.5
20260506012541 53 233 1.0 7.0 0.08 2.91 0.02 96 1005.5
20260506012034 53 235 3.0 8.0 0.08 2.91 0.02 96 1005.5
20260506011604 53 288 2.0 8.0 0.08 2.91 0.02 96 1005.5
20260506011036 53 284 2.0 6.0 0.08 2.91 0.02 96 1005.5
20260506010537 53 247 2.0 8.0 0.04 2.87 0.01 96 1005.6
20260506010037 53 250 2.0 8.0 0.04 2.87 0.01 96 1005.7
20260506005542 54 252 3.0 5.0 0.04 2.87 0.01 96 1005.7
20260506005038 54 235 2.0 6.0 0.00 2.83 0.00 96 1005.7
20260506004558 54 219 3.0 5.0 0.00 2.83 0.00 96 1005.8
20260506004033 54 219 1.0 5.0 0.00 2.83 0.00 96 1005.8
20260506003535 54 250 2.0 6.0 0.00 2.83 0.00 96 1005.9
20260506003037 54 211 2.0 5.0 0.00 2.83 0.00 96 1006.0
20260506002541 54 209 2.0 4.0 0.00 2.83 0.00 96 1006.0
20260506002042 54 198 1.0 5.0 0.00 2.83 0.00 96 1006.1
20260506001553 54 227 2.0 5.0 0.00 2.83 0.00 96 1006.1
20260506001039 54 246 2.0 4.0 0.00 2.83 0.00 96 1006.0
20260506000546 54 225 2.0 3.0 0.00 2.83 0.00 96 1006.0
20260506000045 54 242 1.0 3.0 0.00 2.83 0.57 96 1006.0
20260505235607 54 245 1.0 3.0 0.00 2.83 0.57 96 1006.1
20260505235050 54 236 1.0 4.0 0.00 2.83 0.57 96 1006.1
20260505234534 54 209 1.0 4.0 0.00 2.83 0.57 96 1006.1
20260505234033 54 209 1.0 4.0 0.00 2.83 0.57 96 1006.2
20260505233539 54 276 1.0 4.0 0.00 2.83 0.57 96 1006.1
20260505233043 54 238 2.0 4.0 0.00 2.83 0.57 96 1006.1
20260505232529 54 254 1.0 4.0 0.00 2.83 0.57 96 1006.2
20260505232029 54 281 2.0 5.0 0.00 2.83 0.57 96 1006.1
20260505231540 54 304 2.0 5.0 0.00 2.83 0.57 96 1006.1
20260505231043 54 279 2.0 4.0 0.00 2.83 0.57 96 1006.1
20260505230532 54 292 1.0 4.0 0.00 2.83 0.57 96 1006.2
20260505230043 54 282 1.0 5.0 0.00 2.83 0.57 96 1006.2
20260505225535 54 292 1.0 4.0 0.00 2.83 0.57 96 1006.3
20260505225030 54 284 2.0 4.0 0.00 2.83 0.57 96 1006.4
20260505224540 54 276 2.0 6.0 0.00 2.83 0.57 96 1006.4
20260505224105 54 283 1.0 6.0 0.00 2.83 0.57 96 1006.4
20260505223529 54 246 2.0 5.0 0.00 2.83 0.57 96 1006.4
20260505223051 54 234 2.0 5.0 0.00 2.83 0.57 96 1006.4
20260505222602 54 237 1.0 2.0 0.00 2.83 0.57 96 1006.4
20260505222036 54 286 1.0 2.0 0.00 2.83 0.57 96 1006.5
20260505221545 54 280 1.0 2.0 0.00 2.83 0.57 96 1006.4
20260505221046 54 275 0.0 4.0 0.00 2.83 0.57 96 1006.4
20260505220534 54 281 1.0 4.0 0.00 2.83 0.57 96 1006.5
20260505220034 54 276 1.0 4.0 0.00 2.83 0.57 96 1006.4
20260505215539 54 315 1.0 6.0 0.00 2.83 0.57 96 1006.5
20260505215039 54 293 1.0 8.0 0.00 2.83 0.57 96 1006.4
20260505214542 54 311 3.0 8.0 0.00 2.83 0.57 96 1006.4
20260505214041 54 299 4.0 6.0 0.00 2.83 0.57 96 1006.4
20260505213541 54 302 3.0 7.0 0.00 2.83 0.57 96 1006.3
20260505213028 54 305 3.0 6.0 0.00 2.83 0.57 96 1006.4
20260505212532 54 288 2.0 5.0 0.00 2.83 0.57 96 1006.4
20260505212105 54 283 1.0 4.0 0.00 2.83 0.57 96 1006.4
20260505211551 54 303 1.0 7.0 0.00 2.83 0.57 96 1006.4
20260505211035 54 256 1.0 7.0 0.00 2.83 0.57 96 1006.4
20260505210539 54 273 1.0 4.0 0.00 2.83 0.57 96 1006.5
20260505210047 54 304 1.0 5.0 0.00 2.83 0.57 96 1006.5
20260505205533 54 286 1.0 5.0 0.04 2.83 0.57 96 1006.4
20260505205031 54 258 1.0 7.0 0.04 2.83 0.57 96 1006.4
20260505204542 54 255 2.0 7.0 0.04 2.83 0.57 96 1006.4
20260505204042 54 302 1.0 8.0 0.04 2.83 0.57 96 1006.5
20260505203529 54 303 3.0 8.0 0.04 2.83 0.57 96 1006.4
20260505203031 54 309 2.0 7.0 0.04 2.83 0.57 96 1006.4
20260505202542 54 315 2.0 8.0 0.04 2.83 0.57 96 1006.4
20260505202036 54 325 3.0 9.0 0.04 2.83 0.57 96 1006.3
20260505201538 55 270 4.0 9.0 0.04 2.83 0.57 96 1006.3
20260505201105 55 312 5.0 11.0 0.04 2.83 0.57 96 1006.2
20260505200533 55 330 6.0 11.0 0.04 2.83 0.57 95 1006.2
20260505200044 55 321 5.0 11.0 0.04 2.83 0.57 95 1006.1
20260505195603 55 305 6.0 11.0 0.00 2.80 0.56 95 1006.0
20260505195038 55 321 5.0 10.0 0.00 2.80 0.56 95 1006.0
20260505194546 55 333 6.0 11.0 0.00 2.80 0.56 95 1005.9
20260505194035 55 300 5.0 9.0 0.00 2.80 0.56 95 1005.8
20260505193537 55 295 4.0 11.0 0.00 2.80 0.56 95 1005.8
20260505193037 55 278 5.0 11.0 0.00 2.80 0.56 95 1005.7
20260505192547 55 290 2.0 10.0 0.00 2.80 0.56 95 1005.6
20260505192031 55 344 6.0 10.0 0.00 2.80 0.56 95 1005.6
20260505191532 55 329 4.0 12.0 0.00 2.80 0.56 95 1005.5
20260505191032 56 303 7.0 16.0 0.00 2.80 0.56 95 1005.5
20260505190556 56 317 8.0 16.0 0.00 2.80 0.56 95 1005.4
20260505190035 56 298 10.0 14.0 0.00 2.80 0.56 95 1005.3
20260505185538 56 318 6.0 12.0 0.00 2.80 0.56 95 1005.1
20260505185044 55 333 6.0 12.0 0.00 2.80 0.56 95 1005.0
20260505184535 56 273 5.0 12.0 0.00 2.80 0.56 95 1004.9
20260505184035 56 273 3.0 12.0 0.00 2.80 0.56 95 1004.9
20260505183532 56 275 4.0 13.0 0.00 2.80 0.56 95 1004.8
20260505183031 56 302 5.0 13.0 0.00 2.80 0.56 94 1004.7
20260505182541 56 275 5.0 11.0 0.00 2.80 0.56 94 1004.6
20260505182037 56 225 6.0 13.0 0.00 2.80 0.56 94 1004.6
20260505181541 56 257 6.0 13.0 0.00 2.80 0.56 93 1004.5
20260505181041 56 294 6.0 13.0 0.00 2.80 0.56 93 1004.6
20260505180606 56 227 3.0 11.0 0.04 2.80 0.56 93 1004.5
20260505180032 56 231 3.0 11.0 0.04 2.80 0.56 93 1004.5
20260505175542 56 272 4.0 16.0 0.04 2.80 0.56 93 1004.6
20260505175025 56 215 6.0 16.0 0.04 2.80 0.56 93 1004.5
20260505174602 56 188 5.0 14.0 0.04 2.80 0.56 93 1004.6
20260505174040 56 214 5.0 14.0 0.04 2.80 0.56 94 1004.4
20260505173545 56 252 5.0 18.0 0.04 2.80 0.56 93 1004.4
20260505173047 57 234 6.0 18.0 0.04 2.80 0.56 93 1004.5
20260505172529 56 236 4.0 11.0 0.04 2.80 0.56 93 1004.3
20260505172028 57 232 6.0 14.0 0.04 2.80 0.56 93 1004.4
20260505171531 57 236 7.0 14.0 0.04 2.80 0.56 93 1004.4
20260505171032 57 263 4.0 14.0 0.04 2.80 0.56 92 1004.4
20260505170540 57 291 4.0 14.0 0.00 2.76 0.55 91 1004.4
20260505170044 58 161 3.0 19.0 0.00 2.76 0.55 90 1004.6
20260505165613 59 212 6.0 19.0 0.00 2.76 0.55 89 1004.4
20260505165044 60 242 5.0 12.0 0.00 2.76 0.55 86 1004.4
20260505164545 60 235 7.0 13.0 0.00 2.76 0.55 85 1004.1
20260505164046 60 184 4.0 13.0 0.00 2.76 0.55 84 1004.4
20260505163539 61 255 5.0 11.0 0.00 2.76 0.55 82 1004.4
20260505163036 61 221 3.0 10.0 0.00 2.76 0.55 84 1004.5
20260505162547 62 195 4.0 10.0 0.00 2.76 0.55 83 1004.5
20260505162107 62 219 4.0 8.0 0.00 2.76 0.55 83 1004.6
20260505161531 62 238 2.0 8.0 0.00 2.76 0.55 85 1004.6
20260505161029 61 184 3.0 8.0 0.00 2.76 0.55 85 1004.7
20260505160600 61 196 1.0 7.0 0.00 2.76 0.55 83 1004.6
20260505153032 62 234 6.0 11.0 0.00 2.76 0.55 80 1004.7
20260505152541 62 221 3.0 8.0 0.00 2.76 0.55 81 1004.7
20260505152103 62 278 3.0 8.0 0.00 2.76 0.55 81 1004.8
20260505151534 63 236 2.0 8.0 0.00 2.76 0.55 80 1004.8
20260505151034 63 227 4.0 10.0 0.00 2.76 0.55 80 1004.7
20260505150539 63 323 3.0 9.0 0.00 2.76 0.55 81 1004.7
20260505140525 62 224 3.0 10.0 0.00 2.76 0.55 86 1004.9
20260505125034 59 233 4.0 9.0 0.00 2.76 0.55 92 1005.0
20260505124538 60 219 3.0 9.0 0.00 2.76 0.55 92 1005.0
20260505124044 60 202 5.0 10.0 0.00 2.76 0.55 92 1005.0
20260505123534 60 246 6.0 10.0 0.00 2.76 0.55 91 1004.9
20260505123038 61 167 6.0 11.0 0.00 2.76 0.55 90 1004.9
20260505122606 62 194 6.0 11.0 0.00 2.76 0.55 89 1004.9
20260505122045 62 217 6.0 12.0 0.00 2.76 0.55 88 1004.8
20260505121532 62 215 6.0 12.0 0.00 2.76 0.55 88 1004.8
20260505121030 62 229 5.0 10.0 0.00 2.76 0.55 88 1004.8
20260505120535 62 227 4.0 10.0 0.00 2.76 0.55 91 1004.8
20260505120034 62 207 5.0 8.0 0.00 2.80 0.55 91 1004.8
20260505115549 61 213 5.0 8.0 0.04 2.80 0.55 91 1004.8
20260505115045 62 209 4.0 8.0 0.04 2.80 0.55 92 1004.8
20260505114531 62 235 4.0 6.0 0.12 2.80 0.55 95 1004.8
20260505114034 61 257 3.0 6.0 0.20 2.80 0.55 96 1004.9
20260505113536 60 185 2.0 6.0 0.20 2.80 0.55 96 1004.8
20260505113100 60 305 2.0 4.0 0.28 2.80 0.55 96 1004.9
20260505112552 60 70 1.0 4.0 0.31 2.80 0.55 96 1004.9
20260505112037 59 37 1.0 3.0 0.31 2.80 0.55 96 1004.9
20260505111607 59 75 1.0 3.0 0.31 2.80 0.55 96 1004.9
20260505111044 59 138 0.0 6.0 0.31 2.80 0.55 96 1005.0
20260505110532 59 163 2.0 10.0 0.31 2.80 0.55 96 1005.0
20260505102033 59 69 4.0 8.0 0.04 2.48 0.49 97 1005.1
20260505101535 59 44 4.0 8.0 0.04 2.48 0.49 97 1005.1
20260505101032 59 70 4.0 7.0 0.04 2.48 0.49 97 1005.1
20260505100537 59 68 3.0 6.0 0.04 2.48 0.49 97 1005.2
20260505100028 58 107 3.0 6.0 0.08 2.48 0.49 97 1005.2
20260505095546 58 63 0.0 5.0 0.08 2.48 0.49 97 1005.2
20260505095047 58 57 1.0 5.0 0.12 2.48 0.49 97 1005.2
20260505094528 58 126 1.0 6.0 0.16 2.48 0.49 97 1005.2
20260505094042 58 74 2.0 6.0 0.16 2.44 0.48 97 1005.2
20260505093529 58 67 1.0 8.0 0.20 2.44 0.48 97 1005.2
20260505093046 58 78 4.0 8.0 0.24 2.44 0.48 97 1005.2
20260505092551 57 88 4.0 8.0 0.28 2.44 0.48 97 1005.2
20260505092027 57 82 3.0 6.0 0.35 2.44 0.48 97 1005.2
20260505091540 57 39 3.0 6.0 0.35 2.44 0.48 97 1005.2
20260505091037 57 74 4.0 6.0 0.39 2.44 0.48 97 1005.2
20260505090541 57 71 5.0 7.0 0.35 2.40 0.47 97 1005.2
20260505090032 57 77 3.0 8.0 0.39 2.40 0.47 97 1005.2
20260505085604 57 50 3.0 8.0 0.39 2.40 0.47 97 1005.3
20260505085044 57 44 4.0 6.0 0.39 2.36 0.46 97 1005.3
20260505084531 57 55 3.0 6.0 0.39 2.32 0.46 97 1005.3
20260505084031 56 55 4.0 6.0 0.39 2.28 0.45 97 1005.2
20260505083531 56 64 3.0 6.0 0.39 2.24 0.44 97 1005.3
20260505083030 56 50 4.0 8.0 0.39 2.20 0.43 97 1005.3
20260505082538 56 48 5.0 8.0 0.35 2.13 0.42 97 1005.3
20260505082103 56 50 4.0 6.0 0.39 2.09 0.41 97 1005.3
20260505081544 56 55 3.0 9.0 0.51 2.09 0.41 97 1005.3
20260505081042 56 49 4.0 9.0 0.63 2.05 0.40 97 1005.3
20260505080542 56 49 3.0 8.0 0.63 2.01 0.39 97 1005.4
20260505080059 56 55 5.0 8.0 0.71 2.01 0.39 97 1005.4
20260505075543 56 53 4.0 6.0 0.71 1.97 0.39 97 1005.5
20260505075028 56 38 3.0 6.0 0.79 1.97 0.39 97 1005.5
20260505074528 56 39 4.0 6.0 0.83 1.93 0.38 97 1005.5
20260505074028 56 52 2.0 5.0 0.87 1.89 0.37 97 1005.5
20260505073546 56 60 4.0 6.0 0.94 1.85 0.36 97 1005.6
20260505073032 56 39 3.0 6.0 0.98 1.81 0.35 97 1005.6
20260505072552 56 34 3.0 5.0 0.98 1.73 0.34 97 1005.6
20260505072032 56 39 3.0 5.0 0.98 1.65 0.32 97 1005.7
20260505071538 55 32 2.0 5.0 0.98 1.57 0.31 97 1005.7
20260505071037 55 25 2.0 5.0 0.87 1.42 0.28 97 1005.8
20260505070545 55 9 2.0 6.0 0.87 1.38 0.27 97 1005.8
20260505070037 55 11 4.0 6.0 0.83 1.34 0.25 97 1005.8
20260505065546 55 9 3.0 6.0 0.79 1.26 0.24 97 1005.8
20260505065045 55 14 4.0 8.0 0.75 1.22 0.23 97 1005.8
20260505064558 55 9 3.0 6.0 0.67 1.10 0.20 97 1005.9
20260505064102 55 15 3.0 6.0 0.63 1.02 0.19 97 1005.9
20260505063529 55 17 3.0 5.0 0.55 0.94 0.17 97 1005.9
20260505063043 55 11 3.0 5.0 0.47 0.83 0.15 97 1005.9
20260505062601 55 51 3.0 5.0 0.39 0.75 0.13 97 1006.0
20260505062039 55 27 3.0 5.0 0.35 0.67 0.12 97 1006.0
20260505061547 55 42 3.0 5.0 0.31 0.63 0.11 97 1006.0
20260505061054 55 32 3.0 5.0 0.28 0.59 0.10 97 1006.0
20260505060543 55 34 3.0 6.0 0.24 0.55 0.09 97 1006.0
20260505060030 55 46 3.0 7.0 0.20 0.55 0.09 97 1006.0
20260505055537 56 53 4.0 6.0 0.16 0.51 0.08 97 1006.1
20260505055044 56 15 3.0 6.0 0.12 0.47 0.07 97 1006.1
20260505054539 56 46 2.0 6.0 0.12 0.47 0.07 97 1006.1
20260505054038 56 55 2.0 4.0 0.08 0.43 0.06 97 1006.1
20260505053542 56 42 1.0 4.0 0.08 0.43 0.06 97 1006.0
20260505053030 55 53 1.0 3.0 0.04 0.39 0.06 97 1006.0
20260505052536 56 46 1.0 3.0 0.04 0.39 0.06 97 1006.0
20260505052040 56 37 1.0 4.0 0.00 0.35 0.05 97 1006.0
20260505051529 56 45 2.0 4.0 0.00 0.35 0.05 97 1006.0
20260505051030 55 39 1.0 4.0 0.00 0.35 0.05 97 1006.0
20260505050544 55 19 2.0 4.0 0.00 0.35 0.05 97 1006.0